Time,TemperatureF,DewpointF,PressureIn,WindDirection,WindDirectionDegrees,WindSpeedMPH,WindSpeedGustMPH,Humidity,HourlyPrecipIn,Conditions,Clouds,dailyrainin,SolarRadiationWatts/m^2,SoftwareType,DateUTC
2013-01-19 00:22:00,21.0,14.0,-100.00,ENE,59,6.0,8.0,74,0.00,,,-99.99,1.000000,,2013-01-19 08:22:00,
2013-01-19 00:32:00,21.0,14.0,-100.00,ENE,59,6.0,8.0,74,0.00,,,-99.99,1.000000,,2013-01-19 08:32:00,
2013-01-19 00:42:00,21.0,14.0,-100.00,ENE,59,6.0,8.0,74,0.00,,,-99.99,1.000000,,2013-01-19 08:42:00,
2013-01-19 00:52:00,21.0,14.0,-100.00,ENE,59,6.0,8.0,74,0.00,,,-99.99,1.000000,,2013-01-19 08:52:00,
2013-01-19 01:22:00,18.0,12.0,-100.00,ENE,74,6.0,8.0,78,0.00,,,0.00,1.000000,,2013-01-19 09:22:00,
2013-01-19 01:32:00,18.0,12.0,-100.00,ENE,74,6.0,8.0,78,0.00,,,0.00,1.000000,,2013-01-19 09:32:00,
2013-01-19 01:42:00,18.0,12.0,-100.00,ENE,74,6.0,8.0,78,0.00,,,0.00,1.000000,,2013-01-19 09:42:00,
2013-01-19 01:52:00,18.0,12.0,-100.00,ENE,74,6.0,8.0,78,0.00,,,0.00,1.000000,,2013-01-19 09:52:00,
2013-01-19 02:22:00,18.0,12.0,-100.00,ENE,65,6.0,9.0,77,0.00,,,0.00,1.000000,,2013-01-19 10:22:00,
2013-01-19 02:32:00,18.0,12.0,-100.00,ENE,65,6.0,9.0,77,0.00,,,0.00,1.000000,,2013-01-19 10:32:00,
2013-01-19 02:42:00,18.0,12.0,-100.00,ENE,65,6.0,9.0,77,0.00,,,0.00,1.000000,,2013-01-19 10:42:00,
2013-01-19 02:52:00,18.0,12.0,-100.00,ENE,65,6.0,9.0,77,0.00,,,0.00,1.000000,,2013-01-19 10:52:00,
2013-01-19 04:48:00,16.0,10.0,-100.00,ENE,62,8.0,12.0,78,0.00,,,0.00,1.000000,,2013-01-19 12:48:00,
2013-01-19 04:52:00,16.0,10.0,-100.00,ENE,62,8.0,12.0,78,0.00,,,0.00,1.000000,,2013-01-19 12:52:00,
2013-01-19 05:22:00,16.0,10.0,-100.00,NE,55,7.0,10.0,77,0.00,,,0.00,1.000000,,2013-01-19 13:22:00,
2013-01-19 05:33:00,16.0,10.0,-100.00,NE,55,7.0,10.0,77,0.00,,,0.00,1.000000,,2013-01-19 13:33:00,
2013-01-19 05:42:00,16.0,10.0,-100.00,NE,55,7.0,10.0,77,0.00,,,0.00,1.000000,,2013-01-19 13:42:00,
2013-01-19 05:52:00,16.0,10.0,-100.00,NE,55,7.0,10.0,77,0.00,,,0.00,1.000000,,2013-01-19 13:52:00,
2013-01-19 06:22:00,11.0,8.0,-100.00,ENE,69,7.0,11.0,86,0.00,,,-99.99,1.000000,,2013-01-19 14:22:00,
2013-01-19 06:33:00,11.0,8.0,-100.00,ENE,69,7.0,11.0,86,0.00,,,-99.99,1.000000,,2013-01-19 14:33:00,
2013-01-19 06:42:00,11.0,8.0,-100.00,ENE,69,7.0,11.0,86,0.00,,,-99.99,1.000000,,2013-01-19 14:42:00,
2013-01-19 06:53:00,11.0,8.0,-100.00,ENE,69,7.0,11.0,86,0.00,,,-99.99,1.000000,,2013-01-19 14:53:00,
2013-01-19 07:22:00,14.0,10.0,-100.00,ENE,59,8.0,12.0,84,0.00,,,-99.99,1.000000,,2013-01-19 15:22:00,
2013-01-19 07:33:00,14.0,10.0,-100.00,ENE,59,8.0,12.0,84,0.00,,,-99.99,1.000000,,2013-01-19 15:33:00,
2013-01-19 07:43:00,14.0,10.0,-100.00,ENE,59,8.0,12.0,84,0.00,,,-99.99,1.000000,,2013-01-19 15:43:00,
2013-01-19 07:53:00,14.0,10.0,-100.00,ENE,59,8.0,12.0,84,0.00,,,-99.99,1.000000,,2013-01-19 15:53:00,
2013-01-19 08:23:00,14.0,10.0,-100.00,ENE,74,9.0,13.0,82,0.00,,,0.00,6.000000,,2013-01-19 16:23:00,
2013-01-19 08:33:00,14.0,10.0,-100.00,ENE,74,9.0,13.0,82,0.00,,,0.00,6.000000,,2013-01-19 16:33:00,
2013-01-19 08:43:00,14.0,10.0,-100.00,ENE,74,9.0,13.0,82,0.00,,,0.00,6.000000,,2013-01-19 16:43:00,
2013-01-19 08:53:00,14.0,10.0,-100.00,ENE,74,9.0,13.0,82,0.00,,,0.00,6.000000,,2013-01-19 16:53:00,
2013-01-19 09:27:00,16.0,9.0,-100.00,ENE,69,5.0,15.0,75,0.00,,,0.00,53.000000,,2013-01-19 17:27:00,
2013-01-19 09:34:00,16.0,9.0,-100.00,ENE,69,5.0,15.0,75,0.00,,,0.00,53.000000,,2013-01-19 17:34:00,
2013-01-19 09:45:00,16.0,9.0,-100.00,ENE,69,5.0,15.0,75,0.00,,,0.00,53.000000,,2013-01-19 17:45:00,
2013-01-19 09:53:00,16.0,9.0,-100.00,ENE,69,5.0,15.0,75,0.00,,,0.00,53.000000,,2013-01-19 17:53:00,
2013-01-19 10:25:00,23.0,12.0,-100.00,ENE,65,8.0,12.0,62,0.00,,,0.00,136.000000,,2013-01-19 18:25:00,
2013-01-19 10:34:00,23.0,12.0,-100.00,ENE,65,8.0,12.0,62,0.00,,,0.00,136.000000,,2013-01-19 18:34:00,
2013-01-19 10:44:00,23.0,12.0,-100.00,ENE,65,8.0,12.0,62,0.00,,,0.00,136.000000,,2013-01-19 18:44:00,
2013-01-19 10:53:00,23.0,12.0,-100.00,ENE,65,8.0,12.0,62,0.00,,,0.00,136.000000,,2013-01-19 18:53:00,
2013-01-19 11:27:00,33.0,14.0,-100.00,NE,50,6.0,12.0,45,0.00,,,0.00,127.000000,,2013-01-19 19:27:00,
2013-01-19 11:37:00,33.0,14.0,-100.00,NE,50,6.0,12.0,45,0.00,,,0.00,127.000000,,2013-01-19 19:37:00,
2013-01-19 11:44:00,33.0,14.0,-100.00,NE,50,6.0,12.0,45,0.00,,,0.00,127.000000,,2013-01-19 19:44:00,
2013-01-19 11:54:00,33.0,14.0,-100.00,NE,50,6.0,12.0,45,0.00,,,0.00,127.000000,,2013-01-19 19:54:00,
2013-01-19 12:24:00,41.0,17.0,-100.00,ENE,74,3.0,9.0,37,0.00,,,0.00,317.000000,,2013-01-19 20:24:00,
2013-01-19 12:44:00,41.0,17.0,-100.00,ENE,74,3.0,9.0,37,0.00,,,0.00,317.000000,,2013-01-19 20:44:00,
2013-01-19 12:53:00,41.0,17.0,-100.00,ENE,74,3.0,9.0,37,0.00,,,0.00,317.000000,,2013-01-19 20:53:00,
2013-01-19 13:24:00,43.0,19.0,-100.00,WSW,237,3.0,5.0,38,0.00,,,0.00,527.000000,,2013-01-19 21:24:00,
2013-01-19 13:39:00,43.0,19.0,-100.00,WSW,237,3.0,5.0,38,0.00,,,0.00,527.000000,,2013-01-19 21:39:00,
2013-01-19 13:47:00,43.0,19.0,-100.00,WSW,237,3.0,5.0,38,0.00,,,0.00,527.000000,,2013-01-19 21:47:00,
2013-01-19 13:54:00,43.0,19.0,-100.00,WSW,237,3.0,5.0,38,0.00,,,0.00,527.000000,,2013-01-19 21:54:00,
2013-01-19 14:25:00,46.0,20.0,-100.00,SW,233,3.0,4.0,35,0.00,,,0.00,497.000000,,2013-01-19 22:25:00,
2013-01-19 14:34:00,46.0,20.0,-100.00,SW,233,3.0,4.0,35,0.00,,,0.00,497.000000,,2013-01-19 22:34:00,
2013-01-19 14:45:00,46.0,20.0,-100.00,SW,233,3.0,4.0,35,0.00,,,0.00,497.000000,,2013-01-19 22:45:00,
2013-01-19 14:56:00,45.0,20.0,-100.00,WSW,240,3.0,5.0,37,0.00,,,0.00,410.000000,,2013-01-19 22:56:00,
2013-01-19 15:24:00,45.0,20.0,-100.00,WSW,240,3.0,5.0,37,0.00,,,0.00,410.000000,,2013-01-19 23:24:00,
2013-01-19 15:34:00,45.0,20.0,-100.00,WSW,240,3.0,5.0,37,0.00,,,0.00,410.000000,,2013-01-19 23:34:00,
2013-01-19 15:44:00,45.0,20.0,-100.00,WSW,240,3.0,5.0,37,0.00,,,0.00,410.000000,,2013-01-19 23:44:00,
2013-01-19 16:24:00,41.0,19.0,-100.00,WSW,239,5.0,5.0,40,0.00,,,0.00,278.000000,,2013-01-20 00:24:00,
2013-01-19 16:34:00,41.0,19.0,-100.00,WSW,239,5.0,5.0,40,0.00,,,0.00,278.000000,,2013-01-20 00:34:00,
2013-01-19 16:45:00,41.0,19.0,-100.00,WSW,239,5.0,5.0,40,0.00,,,0.00,278.000000,,2013-01-20 00:45:00,
2013-01-19 16:53:00,41.0,19.0,-100.00,WSW,239,5.0,5.0,40,0.00,,,0.00,278.000000,,2013-01-20 00:53:00,
2013-01-19 17:24:00,38.0,13.0,-100.00,WNW,286,3.0,5.0,35,0.00,,,0.00,105.000000,,2013-01-20 01:24:00,
2013-01-19 17:35:00,38.0,13.0,-100.00,WNW,286,3.0,5.0,35,0.00,,,0.00,105.000000,,2013-01-20 01:35:00,
2013-01-19 17:45:00,38.0,13.0,-100.00,WNW,286,3.0,5.0,35,0.00,,,0.00,105.000000,,2013-01-20 01:45:00,
2013-01-19 17:54:00,38.0,13.0,-100.00,WNW,286,3.0,5.0,35,0.00,,,0.00,105.000000,,2013-01-20 01:54:00,
2013-01-19 18:25:00,35.0,9.0,-100.00,WNW,301,3.0,4.0,33,0.00,,,0.00,3.000000,,2013-01-20 02:25:00,
2013-01-19 18:34:00,35.0,9.0,-100.00,WNW,301,3.0,4.0,33,0.00,,,0.00,3.000000,,2013-01-20 02:34:00,
2013-01-19 18:43:00,35.0,9.0,-100.00,WNW,301,3.0,4.0,33,0.00,,,0.00,3.000000,,2013-01-20 02:43:00,
2013-01-19 19:24:00,31.0,10.0,-100.00,ESE,116,2.0,4.0,40,0.00,,,-99.99,1.000000,,2013-01-20 03:24:00,
2013-01-19 19:36:00,31.0,10.0,-100.00,ESE,116,2.0,4.0,40,0.00,,,-99.99,1.000000,,2013-01-20 03:36:00,
2013-01-19 19:44:00,31.0,10.0,-100.00,ESE,116,2.0,4.0,40,0.00,,,-99.99,1.000000,,2013-01-20 03:44:00,
2013-01-19 19:53:00,31.0,10.0,-100.00,ESE,116,2.0,4.0,40,0.00,,,-99.99,1.000000,,2013-01-20 03:53:00,
2013-01-19 20:24:00,28.0,14.0,-100.00,East,88,5.0,6.0,54,0.00,,,0.00,1.000000,,2013-01-20 04:24:00,
2013-01-19 20:34:00,28.0,14.0,-100.00,East,88,5.0,6.0,54,0.00,,,0.00,1.000000,,2013-01-20 04:34:00,
2013-01-19 20:43:00,28.0,14.0,-100.00,East,88,5.0,6.0,54,0.00,,,0.00,1.000000,,2013-01-20 04:43:00,
2013-01-19 20:53:00,28.0,14.0,-100.00,East,88,5.0,6.0,54,0.00,,,0.00,1.000000,,2013-01-20 04:53:00,
2013-01-19 21:22:00,27.0,13.0,-100.00,ENE,72,6.0,9.0,56,0.00,,,0.00,1.000000,,2013-01-20 05:22:00,
2013-01-19 21:32:00,27.0,13.0,-100.00,ENE,72,6.0,9.0,56,0.00,,,0.00,1.000000,,2013-01-20 05:32:00,
2013-01-19 21:42:00,27.0,13.0,-100.00,ENE,72,6.0,9.0,56,0.00,,,0.00,1.000000,,2013-01-20 05:42:00,
2013-01-19 21:52:00,27.0,13.0,-100.00,ENE,72,6.0,9.0,56,0.00,,,0.00,1.000000,,2013-01-20 05:52:00,
2013-01-19 22:22:00,25.0,12.0,-100.00,ENE,77,4.0,7.0,56,0.00,,,0.00,1.000000,,2013-01-20 06:22:00,
2013-01-19 22:33:00,25.0,12.0,-100.00,ENE,77,4.0,7.0,56,0.00,,,0.00,1.000000,,2013-01-20 06:33:00,
2013-01-19 22:42:00,25.0,12.0,-100.00,ENE,77,4.0,7.0,56,0.00,,,0.00,1.000000,,2013-01-20 06:42:00,
2013-01-19 22:52:00,25.0,12.0,-100.00,ENE,77,4.0,7.0,56,0.00,,,0.00,1.000000,,2013-01-20 06:52:00,
2013-01-19 23:22:00,22.0,11.0,-100.00,ENE,67,7.0,10.0,62,0.00,,,0.00,1.000000,,2013-01-20 07:22:00,
2013-01-19 23:32:00,22.0,11.0,-100.00,ENE,67,7.0,10.0,62,0.00,,,0.00,1.000000,,2013-01-20 07:32:00,
2013-01-19 23:42:00,22.0,11.0,-100.00,ENE,67,7.0,10.0,62,0.00,,,0.00,1.000000,,2013-01-20 07:42:00,
2013-01-19 23:52:00,22.0,11.0,-100.00,ENE,67,7.0,10.0,62,0.00,,,0.00,1.000000,,2013-01-20 07:52:00,